Regional Weather Roundup
Issued by NWS

Home | Current Version | Previous Version | Text Only | Print | Product List | Glossary Off
Versions: 1 2 3 4 5 6 7 8 9 10 11 12 13 14 15 16 17 18 19 20 21 22 23 24 25 26 27

000
ASUS45 KBOI 191810
RWRID

IDAHO REGIONAL WEATHER ROUNDUP
NATIONAL WEATHER SERVICE BOISE ID
1200 PM MDT TUE SEP 19 2017

NOTE: "FAIR" INDICATES FEW OR NO CLOUDS BELOW 12000 FEET
WITH NO SIGNIFICANT WEATHER AND/OR OBSTRUCTIONS TO VISIBILITY

IDZ012-014-191900-
SOUTHWEST IDAHO


CITY           SKY/WX    TMP DP  RH WIND       PRES   REMARKS
BOISE          CLOUDY    53  40  61 N3        29.91F
CALDWELL       CLOUDY    57  38  48 SW14      29.89S
MOUNTAIN HOME  PTSUNNY   51  42  72 NW5       29.92F
$$

IDZ016-017-191900-
SOUTHCENTRAL IDAHO


CITY           SKY/WX    TMP DP  RH WIND       PRES   REMARKS
BURLEY         PTSUNNY   49  39  68 SW10      29.92S
JEROME         MOSUNNY   50  43  77 SW9       29.93S
TWIN FALLS     PTSUNNY   48  41  76 CALM      29.93S
$$

IDZ019>023-191900-
SOUTHEAST IDAHO


CITY           SKY/WX    TMP DP  RH WIND       PRES   REMARKS
IDAHO FALLS    PTSUNNY   51  36  56 SW23G33   29.84F
POCATELLO      CLOUDY    51  39  63 W23G32    29.90R
REXBURG        CLOUDY    48  36  63 S17G24    29.82F
$$

IDZ006-010-011-018-031-032-191900-
CENTRAL IDAHO MOUNTAINS


CITY           SKY/WX    TMP DP  RH WIND       PRES   REMARKS
MCCALL         CLOUDY    40  35  83 S14       29.82R WCI  32
HAILEY         PTSUNNY   45  36  70 E8        29.86F
STANLEY          N/A     37  32  82 E5        29.85S WCI  33
SALMON         LGT RAIN  47  37  68 S13G21    29.79S
CHALLIS        PTSUNNY   45  35  68 S14       29.80S
$$

IDZ002-004-006-007-026-191900-
NORTHERN IDAHO


CITY           SKY/WX    TMP DP  RH WIND       PRES   REMARKS
LEWISTON       CLOUDY    53  47  79 NE6       29.78S
LOWELL           N/A     48  44  86 CALM      29.83S
COEUR D`ALENE  LGT RAIN  46  43  89 S7        29.74S
MULLAN PASS    SNOW      32  30  92 SW8       29.71S VSB 1/4 WCI  25
$$




USA.gov is the U.S. government's official web portal to all federal, state and local government web resources and services.